Home   Weather   Honolulu   Past weeks
Flag for USA

Past Weather in Honolulu, Hawaii, USA — Yesterday and Last 2 Weeks

Now
78 °F

Broken clouds.


Feels Like: 80 °F
Forecast: 77 / 69 °F
Wind: 15 mph from East

Location: Honolulu International Airport

Current Time: Mar 30, 2020 at 11:00:24 am

Latest Report: Mar 30, 2020 at 9:53 am


Visibility: 10 mi

Pressure: 30.06 "Hg

Humidity: 60%

Dew Point: 63 °F

Location of HonoluluLocation

Past Weather in Honolulu — Graph

°F

Honolulu Temperature Yesterday

Maximum temperature yesterday: 82 °F (at 2:53 pm)
Minimum temperature yesterday: 70 °F (at 5:53 am)
Average temperature yesterday: 75 °F

High & Low Weather Summary for the Past Weeks

 TemperatureHumidityPressure
High82 °F (Mar 21, 12:53 pm)97% (Mar 17, 4:53 am)30.24 "Hg (Mar 17, 4:53 am)
Low68 °F (Mar 17, 10:15 am)45% (Mar 23, 12:53 pm)29.92 "Hg (Mar 16, 2:53 pm)
Average74 °F73%30.06 "Hg
* Reported Mar 15 9:53 am — Mar 30 9:53 am, Honolulu. Weather by CustomWeather, © 2020

Note: Actual official high and low records may vary slightly from our data, if they occured in-between our weather recording intervals... More about our weather records

Honolulu Weather History for the Previous 24 Hours

Scroll right to see more
 ConditionsComfort  
Time TempWeatherWind HumidityBarometerVisibility
9:53 am
Mon, Mar 30
78 °FBroken clouds.15 mph60%30.06 "Hg10 mi
8:53 am76 °FBroken clouds.14 mph67%30.06 "Hg10 mi
7:53 am75 °FBroken clouds.10 mph69%30.04 "Hg10 mi
6:53 am73 °FBroken clouds.12 mph74%30.03 "Hg10 mi
5:53 am73 °FPassing clouds.10 mph71%30.02 "Hg10 mi
4:53 am73 °FPassing clouds.10 mph74%30.01 "Hg10 mi
3:53 am73 °FPassing clouds.9 mph71%30.01 "Hg10 mi
2:53 am73 °FPassing clouds.12 mph71%30.01 "Hg10 mi
1:53 am73 °FPassing clouds.8 mph71%30.03 "Hg10 mi
12:53 am74 °FPassing clouds.10 mph69%30.04 "Hg10 mi
11:53 pm
Sun, Mar 29
74 °FPassing clouds.14 mph69%30.05 "Hg10 mi
10:53 pm74 °FPassing clouds.12 mph69%30.06 "Hg10 mi
9:53 pm74 °FPassing clouds.10 mph69%30.06 "Hg10 mi
8:53 pm74 °FPassing clouds.10 mph69%30.05 "Hg10 mi
7:53 pm75 °FPartly cloudy.14 mph66%30.03 "Hg10 mi
6:53 pm75 °FPartly cloudy.13 mph66%30.01 "Hg10 mi
5:53 pm77 °FBroken clouds.17 mph60%29.98 "Hg10 mi
4:53 pm78 °FBroken clouds.15 mph60%29.98 "Hg10 mi
3:53 pm80 °FBroken clouds.18 mph52%29.97 "Hg10 mi
2:53 pm82 °FScattered clouds.20 mph51%29.98 "Hg10 mi
1:53 pm81 °FScattered clouds.14 mph53%29.99 "Hg10 mi
12:53 pm80 °FPartly sunny.17 mph56%30.02 "Hg10 mi
11:53 am80 °FScattered clouds.14 mph54%30.05 "Hg10 mi
Weather by CustomWeather, © 2020

See weather overview

Advertising